Satellite: ISS
Catalog number: 25544
Epoch time:      10087.00051365
Element set:     856
Inclination:      051.6441 deg
RA of node:       287.3974 deg
Eccentricity:    0.0006569
Arg of perigee:   114.6728 deg
Mean anomaly:     048.8749 deg
Mean motion:   15.73940784 rev/day
Decay rate:     2.3257e-04 rev/day^2
Epoch rev:           65068
Checksum:              330

Satellite: CO-58
Catalog number: 28895
Epoch time:      10086.14541900
Element set:     545
Inclination:      098.0263 deg
RA of node:       333.2893 deg
Eccentricity:    0.0017867
Arg of perigee:   179.1293 deg
Mean anomaly:     180.9928 deg
Mean motion:   14.59864978 rev/day
Decay rate:       1.75e-06 rev/day^2
Epoch rev:           23501
Checksum:              350

Satellite: FALCON
Catalog number: 30776
Epoch time:      10086.60945769
Element set:     794
Inclination:      035.4329 deg
RA of node:       179.5309 deg
Eccentricity:    0.0001095
Arg of perigee:   263.4416 deg
Mean anomaly:     096.6176 deg
Mean motion:   15.03550732 rev/day
Decay rate:      1.064e-05 rev/day^2
Epoch rev:           16777
Checksum:              318

Satellite: MAST
Catalog number: 31126
Epoch time:      10084.79233653
Element set:     827
Inclination:      097.9492 deg
RA of node:       131.0793 deg
Eccentricity:    0.0095548
Arg of perigee:   124.9066 deg
Mean anomaly:     236.1129 deg
Mean motion:   14.53566380 rev/day
Decay rate:        4.1e-07 rev/day^2
Epoch rev:           15594
Checksum:              308

Satellite: CAPE1
Catalog number: 31130
Epoch time:      10086.07224037
Element set:     847
Inclination:      097.9482 deg
RA of node:       129.8673 deg
Eccentricity:    0.0103353
Arg of perigee:   128.2885 deg
Mean anomaly:     232.7661 deg
Mean motion:   14.52152026 rev/day
Decay rate:       3.31e-06 rev/day^2
Epoch rev:           15574
Checksum:              285

Satellite: COMPASS
Catalog number: 32787
Epoch time:      10086.19409217
Element set:     629
Inclination:      097.9006 deg
RA of node:       152.0535 deg
Eccentricity:    0.0015602
Arg of perigee:   188.4603 deg
Mean anomaly:     171.6383 deg
Mean motion:   14.81801199 rev/day
Decay rate:       2.16e-06 rev/day^2
Epoch rev:           10335
Checksum:              289

Satellite: AAUSAT2
Catalog number: 32788
Epoch time:      10086.40751482
Element set:     624
Inclination:      097.9051 deg
RA of node:       152.3767 deg
Eccentricity:    0.0015613
Arg of perigee:   186.8912 deg
Mean anomaly:     173.2268 deg
Mean motion:   14.81940691 rev/day
Decay rate:       6.40e-06 rev/day^2
Epoch rev:           10339
Checksum:              308

Satellite: DO-64
Catalog number: 32789
Epoch time:      10086.08555229
Element set:     639
Inclination:      097.9080 deg
RA of node:       152.4419 deg
Eccentricity:    0.0015629
Arg of perigee:   187.7096 deg
Mean anomaly:     172.3900 deg
Mean motion:   14.82034654 rev/day
Decay rate:      1.082e-05 rev/day^2
Epoch rev:           10334
Checksum:              318

Satellite: CO-66
Catalog number: 32791
Epoch time:      10085.93426777
Element set:     620
Inclination:      097.9025 deg
RA of node:       151.8205 deg
Eccentricity:    0.0015492
Arg of perigee:   187.9017 deg
Mean anomaly:     172.1961 deg
Mean motion:   14.81598515 rev/day
Decay rate:        8.9e-07 rev/day^2
Epoch rev:           10327
Checksum:              324

Satellite: RS-30
Catalog number: 32953
Epoch time:      10086.91541677
Element set:     558
Inclination:      082.4966 deg
RA of node:       080.2156 deg
Eccentricity:    0.0017432
Arg of perigee:   281.8331 deg
Mean anomaly:     078.0795 deg
Mean motion:   12.43004496 rev/day
Decay rate:        1.0e-07 rev/day^2
Epoch rev:            8364
Checksum:              300

Satellite: TACSAT-3
Catalog number: 35001
Epoch time:      10086.15385823
Element set:     247
Inclination:      040.4582 deg
RA of node:       346.5899 deg
Eccentricity:    0.0020290
Arg of perigee:   110.8621 deg
Mean anomaly:     249.4369 deg
Mean motion:   15.40898743 rev/day
Decay rate:      6.867e-05 rev/day^2
Epoch rev:            4797
Checksum:              323

Satellite: PHARMSAT
Catalog number: 35002
Epoch time:      10085.87840848
Element set:     234
Inclination:      040.4716 deg
RA of node:       346.5609 deg
Eccentricity:    0.0023319
Arg of perigee:   113.5682 deg
Mean anomaly:     246.7582 deg
Mean motion:   15.41495138 rev/day
Decay rate:      6.038e-05 rev/day^2
Epoch rev:            4794
Checksum:              303

Satellite: HAWKSAT1
Catalog number: 35003
Epoch time:      10086.12618429
Element set:     249
Inclination:      040.4648 deg
RA of node:       341.9752 deg
Eccentricity:    0.0021549
Arg of perigee:   126.7583 deg
Mean anomaly:     233.5214 deg
Mean motion:   15.43707243 rev/day
Decay rate:     1.2103e-04 rev/day^2
Epoch rev:            4802
Checksum:              269

Satellite: CP6
Catalog number: 35004
Epoch time:      10086.80668224
Element set:     242
Inclination:      040.4634 deg
RA of node:       337.4568 deg
Eccentricity:    0.0020410
Arg of perigee:   132.7397 deg
Mean anomaly:     227.5153 deg
Mean motion:   15.44248288 rev/day
Decay rate:     1.4479e-04 rev/day^2
Epoch rev:            4812
Checksum:              291

